[[{"header":{"parameterUnit":"m.s-1","parameterCategory":1,"la1":30.2991,"la2":30.254,"lo1":-89.0895,"lo2":-89.0444,"dy":0.0017,"dx":0.0017,"nx":28,"ny":28,"refTime":"2026-01-29T09:00:00:Z","depth":0,"parameterNumber":2,"parameterNumberName":"U-component_of_WINDS"},"data":[0,0,0,0,0,0,0,0,0,0,0,0,0,0,0,0,0,0,0,0,0,0,0,0,0,0,0,0,0,0,0,0,0,0,0,0,0,0,0,0,0,0,0,0,0,0,0,0,0,0,0,0,0,0,0,0,0,0,1.1889,1.1892,0,1.2135,1.2138,1.214,1.2184,1.2182,1.218,1.2178,1.2437,1.2446,1.2455,0,0,0,0,0,0,0,0,0,0,0,0,0,1.1467,1.1475,1.1889,1.1892,1.1895,1.2134,1.2138,1.2141,1.2184,1.2182,1.2179,1.2177,1.2435,1.2445,1.2456,0,0,0,0,0,0,0,0,0,0,0,0,0,1.1676,1.1477,1.1888,1.1945,1.1953,1.2134,1.2138,1.2142,1.2185,1.2182,1.2179,1.2176,1.2431,1.2444,1.2457,1.2601,0,0,1.2497,1.2503,0,0,0,0,0,0,0,0,1.1664,1.1691,1.1934,1.1942,1.195,1.2125,1.2084,1.2296,1.2186,1.2097,1.2178,1.2174,1.2337,1.2357,1.2411,1.2613,1.2624,1.2499,1.2507,1.2512,1.2516,0,0,0,0,0,0,0,1.1649,1.1681,1.1986,1.1937,1.1948,1.1962,1.1988,1.2125,1.2232,1.2105,1.2108,1.2136,1.2341,1.2398,1.2417,1.2628,1.2498,1.251,1.2518,1.2523,1.2965,1.2968,0,0,0,0,0,0,1.1623,1.1668,1.1979,1.1994,1.1796,1.1972,1.2001,1.2073,1.223,1.2251,1.2139,1.2137,1.2377,1.2401,1.2426,1.2607,1.2512,1.2525,1.2532,1.2961,1.2966,1.297,0,0,0,0,0,0,1.1614,1.1651,1.1969,1.1832,1.1874,1.1982,1.2062,1.2079,1.2136,1.2256,1.2276,1.2177,1.2375,1.2408,1.2557,1.2616,1.2531,1.2543,1.2957,1.2962,1.2968,1.2967,0,0,0,0,0,0,1.1602,1.1647,1.17,1.1833,1.1881,1.2092,1.2066,1.2086,1.2158,1.2158,1.2297,1.2317,1.2375,1.2537,1.257,1.2633,1.2553,1.2952,1.2959,1.2966,1.2962,1.2972,1.298,0,0,0,0,0,1.1587,1.1691,1.1702,1.1739,1.1949,1.2095,1.2123,1.2186,1.2162,1.2218,1.2296,1.2312,1.2605,1.2552,1.259,1.2657,1.2948,1.2957,1.2965,1.2958,1.297,1.298,0,0,0,0,0,0,1.1563,1.1709,1.1723,1.1873,1.1971,1.2102,1.2174,1.2196,1.2305,1.2301,1.2378,1.2409,1.2555,1.2622,1.256,1.2807,1.2775,1.2792,1.2757,1.2769,1.2778,1.2758,1.2564,0,0,0,0,0,1.1575,1.1679,1.1802,1.1923,1.1971,1.2064,1.2131,1.2171,1.2277,1.2319,1.2408,1.2512,1.2628,1.2703,1.2816,1.2973,1.3005,1.3038,1.3047,1.3054,1.3067,1.3158,1.3175,1.2998,1.2998,1.2997,0,0,1.1602,1.1694,1.1755,1.1921,1.2001,1.211,1.2099,1.2214,1.2297,1.2338,1.2483,1.2553,1.2675,1.283,1.2902,1.289,1.3124,1.3065,1.3069,1.3079,1.3169,1.3185,1.32,1.3003,1.3002,1.3001,0,0,1.1705,1.1785,1.1894,1.1976,1.2098,1.216,1.2187,1.2316,1.2362,1.251,1.2543,1.2646,1.2842,1.2929,1.2998,1.3139,1.316,1.3175,1.3221,1.3309,1.3323,1.3336,1.3387,1.3405,1.3188,1.3188,1.3188,0,1.1723,1.1885,1.1949,1.2063,1.2136,1.2177,1.2291,1.2368,1.2522,1.2573,1.2557,1.2807,1.2893,1.3069,1.3103,1.3158,1.3194,1.3158,1.3315,1.3329,1.3342,1.3392,1.3411,1.3189,1.3189,1.3188,1.3188,0,1.1902,1.2015,1.209,1.2235,1.2317,1.243,1.2515,1.2591,1.2626,1.2691,1.2843,1.2947,1.3083,1.3129,1.3164,1.3312,1.3301,1.3299,1.3269,1.3358,1.3407,1.3426,1.319,1.319,1.3189,1.3189,0,0,1.1994,1.2175,1.2201,1.2269,1.2409,1.2499,1.2617,1.2748,1.2813,1.292,1.3022,1.319,1.319,1.3269,1.3316,1.3393,1.35,1.3383,1.3387,1.3401,1.3672,1.3671,1.3692,1.3515,1.3519,1.3522,1.3662,0,1.2114,1.2321,1.2384,1.2559,1.2666,1.2709,1.2812,1.2911,1.2976,1.3079,1.3153,1.3271,1.3262,1.331,1.3389,1.347,1.3555,1.3461,1.3614,1.3618,1.358,1.3717,1.3717,1.3843,1.3681,1.3684,1.3687,0,1.228,1.2387,1.2572,1.2701,1.2748,1.2839,1.2966,1.3063,1.3179,1.3221,1.3311,1.3352,1.3481,1.3445,1.3626,1.356,1.3628,1.3678,1.3684,1.37,1.3656,1.3737,1.3885,1.3903,1.3717,1.3715,1.3713,0,1.2329,1.252,1.2656,1.2713,1.2867,1.293,1.2998,1.311,1.3186,1.3298,1.3349,1.3476,1.3546,1.3646,1.3721,1.3688,1.3896,1.3866,1.3937,1.3936,1.3978,1.3974,1.4138,1.4022,1.4022,1.4022,1.4021,0,1.2455,1.2567,1.268,1.2764,1.2892,1.2966,1.3092,1.3163,1.3263,1.3364,1.3411,1.3505,1.36,1.3708,1.3769,1.3911,1.3942,1.3982,1.3997,1.3978,1.3972,1.4021,1.4014,1.4027,1.4026,1.4025,1.4024,0,1.253,1.261,1.2761,1.2895,1.2932,1.302,1.3136,1.3222,1.329,1.3417,1.3452,1.356,1.3691,1.3777,1.3944,1.3985,1.414,1.4153,1.4099,1.4106,1.4173,1.4165,1.4373,1.4405,1.4268,1.4269,1.427,0,1.2604,1.2691,1.2834,1.2904,1.2971,1.3083,1.3161,1.3239,1.3319,1.3459,1.3528,1.3661,1.3771,1.3979,1.4075,1.4204,1.4221,1.4285,1.424,1.4219,1.4222,1.4215,1.4226,1.4291,1.4292,1.4293,1.4294,0,1.2728,1.2765,1.2873,1.2996,1.3087,1.3189,1.3291,1.3347,1.3444,1.3532,1.3665,1.375,1.3921,1.4054,1.4193,1.4267,1.4298,1.4308,1.4331,1.4311,1.4277,1.4297,1.4118,1.4302,1.4301,1.4301,1.43,1.43,1.2806,1.2886,1.2999,1.3119,1.3204,1.33,1.3386,1.3466,1.3577,1.372,1.3761,1.39,1.4019,1.4208,1.4285,1.4398,1.4391,1.4425,1.4433,1.444,1.4441,1.426,1.4424,1.4424,1.4424,1.4424,1.4424,0,1.2932,1.3008,1.3118,1.3258,1.3354,1.3374,1.3489,1.3569,1.3689,1.3796,1.3904,1.4059,1.4189,1.4296,1.4431,1.4501,1.4519,1.4534,1.453,1.4547,1.4439,1.4405,1.4518,1.4518,1.4518,1.4518,1.4518,1.4518,1.3009,1.3145,1.3196,1.3377,1.3454,1.3588,1.3652,1.3742,1.3827,1.3997,1.4104,1.4173,1.4281,1.4426,1.4548,1.4576,1.4624,1.4636,1.4668,1.4565,1.4554,1.4544,1.4512,1.4646,1.4646,1.4767,1.4768,1.4768]},{"header":{"parameterUnit":"m.s-1","parameterCategory":1,"la1":30.2991,"la2":30.254,"lo1":-89.0895,"lo2":-89.0444,"dy":0.0017,"dx":0.0017,"nx":28,"ny":28,"refTime":"2026-01-29T09:00:00:Z","depth":0,"parameterNumber":3,"parameterNumberName":"V-component_of_WINDS"},"data":[0,0,0,0,0,0,0,0,0,0,0,0,0,0,0,0,0,0,0,0,0,0,0,0,0,0,0,0,0,0,0,0,0,0,0,0,0,0,0,0,0,0,0,0,0,0,0,0,0,0,0,0,0,0,0,0,0,0,-1.4813,-1.4814,0,-1.4885,-1.4886,-1.4886,-1.4902,-1.4901,-1.4901,-1.49,-1.4974,-1.4977,-1.4979,0,0,0,0,0,0,0,0,0,0,0,0,0,-1.4693,-1.4695,-1.4813,-1.4814,-1.4815,-1.4885,-1.4886,-1.4887,-1.4902,-1.4901,-1.4901,-1.49,-1.4973,-1.4976,-1.4979,0,0,0,0,0,0,0,0,0,0,0,0,0,-1.4753,-1.4695,-1.4813,-1.4831,-1.4833,-1.4885,-1.4886,-1.4887,-1.4902,-1.4901,-1.49,-1.49,-1.4972,-1.4976,-1.498,-1.5018,0,0,-1.4991,-1.4992,0,0,0,0,0,0,0,0,-1.4749,-1.4757,-1.4828,-1.483,-1.4833,-1.4884,-1.487,-1.4931,-1.4902,-1.4876,-1.49,-1.4899,-1.4945,-1.4951,-1.4966,-1.5022,-1.5025,-1.4991,-1.4993,-1.4995,-1.4996,0,0,0,0,0,0,0,-1.4745,-1.4754,-1.4842,-1.4829,-1.4832,-1.4836,-1.4844,-1.4882,-1.4914,-1.4878,-1.4879,-1.4888,-1.4946,-1.4962,-1.4968,-1.5026,-1.4991,-1.4994,-1.4997,-1.4998,-1.512,-1.5121,0,0,0,0,0,0,-1.4738,-1.4751,-1.4839,-1.4844,-1.4788,-1.4839,-1.4848,-1.4868,-1.4914,-1.492,-1.4888,-1.4888,-1.4956,-1.4963,-1.497,-1.502,-1.4995,-1.4998,-1.5001,-1.5119,-1.512,-1.5121,0,0,0,0,0,0,-1.4735,-1.4745,-1.4836,-1.4798,-1.481,-1.4842,-1.4865,-1.487,-1.4886,-1.4921,-1.4927,-1.4899,-1.4956,-1.4965,-1.5007,-1.5022,-1.5,-1.5003,-1.5118,-1.5119,-1.5121,-1.5118,0,0,0,0,0,0,-1.4731,-1.4744,-1.4758,-1.4798,-1.4812,-1.4871,-1.4866,-1.4872,-1.4892,-1.4893,-1.4933,-1.4938,-1.4956,-1.5001,-1.501,-1.5027,-1.5006,-1.5116,-1.5118,-1.512,-1.5116,-1.5119,-1.5121,0,0,0,0,0,-1.4727,-1.4754,-1.4759,-1.4769,-1.483,-1.4871,-1.4879,-1.4899,-1.4893,-1.4908,-1.4932,-1.4937,-1.502,-1.5005,-1.5016,-1.5034,-1.5115,-1.5118,-1.512,-1.5115,-1.5118,-1.5121,0,0,0,0,0,0,-1.4715,-1.4759,-1.4765,-1.4806,-1.4835,-1.4874,-1.4893,-1.4901,-1.4932,-1.4931,-1.4955,-1.4964,-1.5004,-1.5023,-1.5007,-1.5075,-1.5067,-1.5072,-1.506,-1.5063,-1.5066,-1.506,-1.5009,0,0,0,0,0,-1.4717,-1.4747,-1.4784,-1.4817,-1.4831,-1.486,-1.4879,-1.4892,-1.4922,-1.4935,-1.4961,-1.4991,-1.5024,-1.5045,-1.5077,-1.512,-1.513,-1.5138,-1.514,-1.5142,-1.5145,-1.5171,-1.5176,-1.5129,-1.5129,-1.5129,0,0,-1.4722,-1.475,-1.4767,-1.4815,-1.4839,-1.487,-1.487,-1.4902,-1.4926,-1.494,-1.498,-1.5001,-1.5037,-1.508,-1.51,-1.5097,-1.5161,-1.5145,-1.5146,-1.5148,-1.5174,-1.5178,-1.5182,-1.513,-1.513,-1.513,0,0,-1.4746,-1.477,-1.48,-1.4824,-1.4861,-1.4881,-1.4888,-1.4927,-1.4941,-1.4983,-1.4994,-1.5024,-1.5079,-1.5105,-1.5125,-1.5163,-1.5169,-1.5173,-1.5184,-1.5209,-1.5213,-1.5216,-1.523,-1.5235,-1.5176,-1.5176,-1.5176,0,-1.4746,-1.4793,-1.4814,-1.4847,-1.4868,-1.4884,-1.4915,-1.4938,-1.4984,-1.4999,-1.4995,-1.5067,-1.5092,-1.5142,-1.5152,-1.5167,-1.5178,-1.5167,-1.521,-1.5214,-1.5217,-1.5231,-1.5236,-1.5176,-1.5176,-1.5176,-1.5176,0,-1.4793,-1.4825,-1.4845,-1.4889,-1.4914,-1.4945,-1.4973,-1.4995,-1.5007,-1.5027,-1.5071,-1.5102,-1.5142,-1.5155,-1.5166,-1.5207,-1.5204,-1.5205,-1.5198,-1.5222,-1.5235,-1.524,-1.5176,-1.5176,-1.5176,-1.5176,0,0,-1.4808,-1.4866,-1.4873,-1.4894,-1.4937,-1.4963,-1.4997,-1.5036,-1.5055,-1.5087,-1.5116,-1.5165,-1.5167,-1.519,-1.5205,-1.5227,-1.5257,-1.5226,-1.5227,-1.5231,-1.5305,-1.5303,-1.5309,-1.5262,-1.5263,-1.5264,-1.5302,0,-1.4837,-1.4897,-1.4919,-1.4968,-1.4999,-1.5016,-1.5046,-1.5077,-1.5098,-1.5128,-1.5152,-1.5186,-1.5185,-1.52,-1.5223,-1.5248,-1.5272,-1.5246,-1.529,-1.5292,-1.528,-1.5316,-1.5314,-1.5348,-1.5307,-1.5308,-1.5309,0,-1.4878,-1.4911,-1.4964,-1.5005,-1.5019,-1.5045,-1.5084,-1.5113,-1.5149,-1.5163,-1.519,-1.5205,-1.5242,-1.5234,-1.5287,-1.5269,-1.529,-1.5305,-1.5307,-1.5311,-1.5301,-1.5321,-1.5359,-1.5364,-1.5317,-1.5317,-1.5316,0,-1.4884,-1.4942,-1.4981,-1.4999,-1.5048,-1.5067,-1.5088,-1.5124,-1.5147,-1.5181,-1.5197,-1.5235,-1.5256,-1.5287,-1.5312,-1.5304,-1.5363,-1.5357,-1.5376,-1.5376,-1.5387,-1.5385,-1.5429,-1.5401,-1.5401,-1.5401,-1.5401,0,-1.4913,-1.4945,-1.4985,-1.5009,-1.5046,-1.5072,-1.5108,-1.5131,-1.5163,-1.5193,-1.5211,-1.5239,-1.5271,-1.5303,-1.5324,-1.5365,-1.5375,-1.5388,-1.5392,-1.5386,-1.5384,-1.5398,-1.5396,-1.5402,-1.5402,-1.5402,-1.5401,0,-1.4925,-1.4953,-1.4997,-1.5042,-1.5054,-1.5079,-1.5117,-1.5142,-1.5165,-1.5203,-1.5214,-1.525,-1.529,-1.5318,-1.5369,-1.5383,-1.5428,-1.5433,-1.5416,-1.5418,-1.5436,-1.5434,-1.5489,-1.5498,-1.5465,-1.5465,-1.5465,0,-1.4941,-1.4966,-1.5014,-1.5035,-1.5057,-1.5091,-1.5115,-1.5143,-1.5168,-1.5213,-1.5233,-1.5274,-1.5308,-1.5371,-1.5402,-1.5442,-1.5448,-1.5465,-1.5454,-1.5447,-1.5449,-1.5447,-1.545,-1.5466,-1.5466,-1.5466,-1.5467,0,-1.4967,-1.4981,-1.5014,-1.5054,-1.5082,-1.5115,-1.5147,-1.5164,-1.5199,-1.5226,-1.5267,-1.5293,-1.5347,-1.5388,-1.5431,-1.5455,-1.5467,-1.547,-1.5477,-1.5469,-1.5458,-1.5465,-1.5419,-1.5468,-1.5468,-1.5468,-1.5468,-1.5468,-1.4982,-1.5006,-1.5043,-1.5081,-1.5109,-1.514,-1.5166,-1.5193,-1.5228,-1.5273,-1.5289,-1.5331,-1.537,-1.543,-1.5454,-1.5489,-1.5489,-1.5498,-1.55,-1.5502,-1.5502,-1.5454,-1.5498,-1.5498,-1.5498,-1.5498,-1.5498,0,-1.5009,-1.5035,-1.5069,-1.5115,-1.5146,-1.5155,-1.5193,-1.5218,-1.5255,-1.529,-1.5324,-1.5372,-1.5413,-1.5449,-1.5492,-1.5513,-1.552,-1.5523,-1.5522,-1.5527,-1.55,-1.549,-1.5517,-1.5517,-1.5517,-1.5517,-1.5517,-1.5517,-1.5026,-1.5067,-1.5086,-1.5142,-1.5168,-1.521,-1.5231,-1.526,-1.5288,-1.5342,-1.5376,-1.5399,-1.5435,-1.5481,-1.552,-1.553,-1.5545,-1.5547,-1.5558,-1.5531,-1.5529,-1.5527,-1.5517,-1.555,-1.555,-1.5582,-1.5583,-1.5583]}]]